Time,TemperatureF,DewpointF,PressureIn,WindDirection,WindDirectionDegrees,WindSpeedMPH,WindSpeedGustMPH,Humidity,HourlyPrecipIn,Conditions,Clouds,dailyrainin,SoftwareType,DateUTC
2013-06-13 00:00:00,65.0,57.0,-100.00,SW,214,3.0,4.0,74,0.00,,,-99.99,,2013-06-13 04:00:00,
2013-06-13 00:33:00,65.0,57.0,-100.00,SW,214,3.0,4.0,74,0.00,,,-99.99,,2013-06-13 04:33:00,
2013-06-13 00:43:00,65.0,57.0,-100.00,SW,214,3.0,4.0,74,0.00,,,-99.99,,2013-06-13 04:43:00,
2013-06-13 00:54:00,65.0,57.0,-100.00,SW,214,3.0,4.0,74,0.00,,,-99.99,,2013-06-13 04:54:00,
2013-06-13 01:00:00,64.0,57.0,-100.00,SSE,165,1.0,5.0,77,0.00,,,-99.99,,2013-06-13 05:00:00,
2013-06-13 01:33:00,64.0,57.0,-100.00,SSE,165,1.0,5.0,77,0.00,,,-99.99,,2013-06-13 05:33:00,
2013-06-13 01:43:00,64.0,57.0,-100.00,SSE,165,1.0,5.0,77,0.00,,,-99.99,,2013-06-13 05:43:00,
2013-06-13 01:53:00,64.0,57.0,-100.00,SSE,165,1.0,5.0,77,0.00,,,-99.99,,2013-06-13 05:53:00,
2013-06-13 02:00:00,64.0,56.0,-100.00,South,190,1.0,3.0,76,0.00,,,-99.99,,2013-06-13 06:00:00,
2013-06-13 02:33:00,64.0,56.0,-100.00,South,190,1.0,3.0,76,0.00,,,-99.99,,2013-06-13 06:33:00,
2013-06-13 02:44:00,64.0,56.0,-100.00,South,190,1.0,3.0,76,0.00,,,-99.99,,2013-06-13 06:44:00,
2013-06-13 02:52:00,64.0,56.0,-100.00,South,190,1.0,3.0,76,0.00,,,-99.99,,2013-06-13 06:52:00,
2013-06-13 03:00:00,64.0,56.0,-100.00,South,184,0.0,5.0,76,0.00,,,-99.99,,2013-06-13 07:00:00,
2013-06-13 03:33:00,64.0,56.0,-100.00,South,184,0.0,5.0,76,0.00,,,-99.99,,2013-06-13 07:33:00,
2013-06-13 03:42:00,64.0,56.0,-100.00,South,184,0.0,5.0,76,0.00,,,-99.99,,2013-06-13 07:42:00,
2013-06-13 03:52:00,64.0,56.0,-100.00,South,184,0.0,5.0,76,0.00,,,-99.99,,2013-06-13 07:52:00,
2013-06-13 04:00:00,64.0,56.0,-100.00,WSW,247,0.0,6.0,75,0.00,,,-99.99,,2013-06-13 08:00:00,
2013-06-13 04:32:00,64.0,56.0,-100.00,WSW,247,0.0,6.0,75,0.00,,,-99.99,,2013-06-13 08:32:00,
2013-06-13 04:43:00,64.0,56.0,-100.00,WSW,247,0.0,6.0,75,0.00,,,-99.99,,2013-06-13 08:43:00,
2013-06-13 04:52:00,64.0,56.0,-100.00,WSW,247,0.0,6.0,75,0.00,,,-99.99,,2013-06-13 08:52:00,
2013-06-13 05:00:00,63.0,57.0,-100.00,NNE,15,0.0,3.0,83,0.00,,,-99.99,,2013-06-13 09:00:00,
2013-06-13 05:32:00,63.0,57.0,-100.00,NNE,15,0.0,3.0,83,0.00,,,-99.99,,2013-06-13 09:32:00,
2013-06-13 05:42:00,63.0,57.0,-100.00,NNE,15,0.0,3.0,83,0.00,,,-99.99,,2013-06-13 09:42:00,
2013-06-13 05:52:00,63.0,57.0,-100.00,NNE,15,0.0,3.0,83,0.00,,,-99.99,,2013-06-13 09:52:00,
2013-06-13 06:00:00,67.0,55.0,-100.00,SE,140,2.0,8.0,66,0.00,,,-99.99,,2013-06-13 10:00:00,
2013-06-13 06:33:00,67.0,55.0,-100.00,SE,140,2.0,8.0,66,0.00,,,-99.99,,2013-06-13 10:33:00,
2013-06-13 06:43:00,67.0,55.0,-100.00,SE,140,2.0,8.0,66,0.00,,,-99.99,,2013-06-13 10:43:00,
2013-06-13 06:53:00,67.0,55.0,-100.00,SE,140,2.0,8.0,66,0.00,,,-99.99,,2013-06-13 10:53:00,
2013-06-13 07:00:00,66.0,59.0,-100.00,SSE,161,6.0,12.0,76,0.00,,,-99.99,,2013-06-13 11:00:00,
2013-06-13 07:32:00,66.0,59.0,-100.00,SSE,161,6.0,12.0,76,0.00,,,-99.99,,2013-06-13 11:32:00,
2013-06-13 07:42:00,66.0,59.0,-100.00,SSE,161,6.0,12.0,76,0.00,,,-99.99,,2013-06-13 11:42:00,
2013-06-13 07:52:00,66.0,59.0,-100.00,SSE,161,6.0,12.0,76,0.00,,,-99.99,,2013-06-13 11:52:00,
2013-06-13 08:00:00,67.0,58.0,-100.00,SSE,158,10.0,16.0,73,0.00,,,-99.99,,2013-06-13 12:00:00,
2013-06-13 08:35:00,67.0,58.0,-100.00,SSE,158,10.0,16.0,73,0.00,,,-99.99,,2013-06-13 12:35:00,
2013-06-13 08:43:00,67.0,58.0,-100.00,SSE,158,10.0,16.0,73,0.00,,,-99.99,,2013-06-13 12:43:00,
2013-06-13 08:52:00,67.0,58.0,-100.00,SSE,158,10.0,16.0,73,0.00,,,-99.99,,2013-06-13 12:52:00,
2013-06-13 09:00:00,67.0,57.0,-100.00,ESE,119,5.0,17.0,70,0.00,,,-99.99,,2013-06-13 13:00:00,
2013-06-13 09:33:00,67.0,57.0,-100.00,ESE,119,5.0,17.0,70,0.00,,,-99.99,,2013-06-13 13:33:00,
2013-06-13 09:43:00,67.0,57.0,-100.00,ESE,119,5.0,17.0,70,0.00,,,-99.99,,2013-06-13 13:43:00,
2013-06-13 09:53:00,67.0,57.0,-100.00,ESE,119,5.0,17.0,70,0.00,,,-99.99,,2013-06-13 13:53:00,
2013-06-13 10:00:00,66.0,59.0,-100.00,SSE,167,5.0,16.0,77,0.00,,,-99.99,,2013-06-13 14:00:00,
2013-06-13 10:33:00,66.0,59.0,-100.00,SSE,167,5.0,16.0,77,0.00,,,-99.99,,2013-06-13 14:33:00,
2013-06-13 10:43:00,66.0,59.0,-100.00,SSE,167,5.0,16.0,77,0.00,,,-99.99,,2013-06-13 14:43:00,
2013-06-13 10:53:00,66.0,59.0,-100.00,SSE,167,5.0,16.0,77,0.00,,,-99.99,,2013-06-13 14:53:00,
2013-06-13 11:00:00,63.0,60.0,-100.00,WNW,298,5.0,13.0,89,0.21,,,-99.99,,2013-06-13 15:00:00,
2013-06-13 11:33:00,63.0,60.0,-100.00,WNW,298,5.0,13.0,89,0.21,,,-99.99,,2013-06-13 15:33:00,
2013-06-13 11:43:00,63.0,60.0,-100.00,WNW,298,5.0,13.0,89,0.21,,,-99.99,,2013-06-13 15:43:00,
2013-06-13 11:53:00,63.0,60.0,-100.00,WNW,298,5.0,13.0,89,0.21,,,-99.99,,2013-06-13 15:53:00,
2013-06-13 12:00:00,63.0,58.0,-100.00,SE,142,10.0,28.0,85,0.19,,,-99.99,,2013-06-13 16:00:00,
2013-06-13 12:33:00,63.0,58.0,-100.00,SE,142,10.0,28.0,85,0.19,,,-99.99,,2013-06-13 16:33:00,
2013-06-13 12:43:00,63.0,58.0,-100.00,SE,142,10.0,28.0,85,0.19,,,-99.99,,2013-06-13 16:43:00,
2013-06-13 12:54:00,63.0,58.0,-100.00,SE,142,10.0,28.0,85,0.19,,,-99.99,,2013-06-13 16:54:00,
2013-06-13 13:00:00,65.0,60.0,-100.00,SSE,166,11.0,26.0,86,0.01,,,-99.99,,2013-06-13 17:00:00,
2013-06-13 13:33:00,65.0,60.0,-100.00,SSE,166,11.0,26.0,86,0.01,,,-99.99,,2013-06-13 17:33:00,
2013-06-13 13:43:00,65.0,60.0,-100.00,SSE,166,11.0,26.0,86,0.01,,,-99.99,,2013-06-13 17:43:00,
2013-06-13 13:53:00,65.0,60.0,-100.00,SSE,166,11.0,26.0,86,0.01,,,-99.99,,2013-06-13 17:53:00,
2013-06-13 14:00:00,67.0,62.0,-100.00,SSE,167,11.0,19.0,86,0.00,,,-99.99,,2013-06-13 18:00:00,
2013-06-13 14:33:00,67.0,62.0,-100.00,SSE,167,11.0,19.0,86,0.00,,,-99.99,,2013-06-13 18:33:00,
2013-06-13 14:43:00,67.0,62.0,-100.00,SSE,167,11.0,19.0,86,0.00,,,-99.99,,2013-06-13 18:43:00,
2013-06-13 14:52:00,67.0,62.0,-100.00,SSE,167,11.0,19.0,86,0.00,,,-99.99,,2013-06-13 18:52:00,
2013-06-13 15:00:00,66.0,62.0,-100.00,SSE,163,13.0,20.0,87,0.00,,,-99.99,,2013-06-13 19:00:00,
2013-06-13 15:33:00,66.0,62.0,-100.00,SSE,163,13.0,20.0,87,0.00,,,-99.99,,2013-06-13 19:33:00,
2013-06-13 15:43:00,66.0,62.0,-100.00,SSE,163,13.0,20.0,87,0.00,,,-99.99,,2013-06-13 19:43:00,
2013-06-13 15:53:00,66.0,62.0,-100.00,SSE,163,13.0,20.0,87,0.00,,,-99.99,,2013-06-13 19:53:00,
2013-06-13 16:00:00,66.0,62.0,-100.00,ENE,62,3.0,18.0,87,0.00,,,-99.99,,2013-06-13 20:00:00,
2013-06-13 16:33:00,66.0,62.0,-100.00,ENE,62,3.0,18.0,87,0.00,,,-99.99,,2013-06-13 20:33:00,
2013-06-13 16:44:00,66.0,62.0,-100.00,ENE,62,3.0,18.0,87,0.00,,,-99.99,,2013-06-13 20:44:00,
2013-06-13 16:53:00,66.0,62.0,-100.00,ENE,62,3.0,18.0,87,0.00,,,-99.99,,2013-06-13 20:53:00,
2013-06-13 17:00:00,67.0,62.0,-100.00,ESE,108,10.0,13.0,84,0.00,,,-99.99,,2013-06-13 21:00:00,
2013-06-13 17:34:00,67.0,62.0,-100.00,ESE,108,10.0,13.0,84,0.00,,,-99.99,,2013-06-13 21:34:00,
2013-06-13 17:43:00,67.0,62.0,-100.00,ESE,108,10.0,13.0,84,0.00,,,-99.99,,2013-06-13 21:43:00,
2013-06-13 17:52:00,67.0,62.0,-100.00,ESE,108,10.0,13.0,84,0.00,,,-99.99,,2013-06-13 21:52:00,
2013-06-13 18:00:00,66.0,62.0,-100.00,ESE,121,3.0,12.0,89,0.00,,,-99.99,,2013-06-13 22:00:00,
2013-06-13 18:33:00,66.0,62.0,-100.00,ESE,121,3.0,12.0,89,0.00,,,-99.99,,2013-06-13 22:33:00,
2013-06-13 18:43:00,66.0,62.0,-100.00,ESE,121,3.0,12.0,89,0.00,,,-99.99,,2013-06-13 22:43:00,
2013-06-13 18:52:00,66.0,62.0,-100.00,ESE,121,3.0,12.0,89,0.00,,,-99.99,,2013-06-13 22:52:00,
2013-06-13 19:00:00,66.0,63.0,-100.00,ENE,69,5.0,12.0,92,0.00,,,-99.99,,2013-06-13 23:00:00,
2013-06-13 19:32:00,66.0,63.0,-100.00,ENE,69,5.0,12.0,92,0.00,,,-99.99,,2013-06-13 23:32:00,
2013-06-13 19:43:00,66.0,63.0,-100.00,ENE,69,5.0,12.0,92,0.00,,,-99.99,,2013-06-13 23:43:00,
2013-06-13 19:52:00,66.0,63.0,-100.00,ENE,69,5.0,12.0,92,0.00,,,-99.99,,2013-06-13 23:52:00,
2013-06-13 20:00:00,64.0,62.0,-100.00,NE,38,7.0,16.0,94,0.02,,,-99.99,,2013-06-14 00:00:00,
2013-06-13 20:34:00,64.0,62.0,-100.00,NE,38,7.0,16.0,94,0.02,,,-99.99,,2013-06-14 00:34:00,
2013-06-13 20:43:00,64.0,62.0,-100.00,NE,38,7.0,16.0,94,0.02,,,-99.99,,2013-06-14 00:43:00,
2013-06-13 20:53:00,64.0,62.0,-100.00,NE,38,7.0,16.0,94,0.02,,,-99.99,,2013-06-14 00:53:00,
2013-06-13 21:00:00,64.0,62.0,-100.00,North,1,7.0,12.0,95,0.01,,,-99.99,,2013-06-14 01:00:00,
2013-06-13 21:33:00,64.0,62.0,-100.00,North,1,7.0,12.0,95,0.01,,,-99.99,,2013-06-14 01:33:00,
2013-06-13 21:43:00,64.0,62.0,-100.00,North,1,7.0,12.0,95,0.01,,,-99.99,,2013-06-14 01:43:00,
2013-06-13 21:53:00,64.0,62.0,-100.00,North,1,7.0,12.0,95,0.01,,,-99.99,,2013-06-14 01:53:00,
2013-06-13 22:00:00,62.0,60.0,-100.00,NE,41,11.0,20.0,93,0.06,,,-99.99,,2013-06-14 02:00:00,
2013-06-13 22:33:00,62.0,60.0,-100.00,NE,41,11.0,20.0,93,0.06,,,-99.99,,2013-06-14 02:33:00,
2013-06-13 22:43:00,62.0,60.0,-100.00,NE,41,11.0,20.0,93,0.06,,,-99.99,,2013-06-14 02:43:00,
2013-06-13 22:53:00,62.0,60.0,-100.00,NE,41,11.0,20.0,93,0.06,,,-99.99,,2013-06-14 02:53:00,
2013-06-13 23:00:00,61.0,59.0,-100.00,NNE,26,9.0,20.0,94,0.32,,,-99.99,,2013-06-14 03:00:00,
2013-06-13 23:34:00,61.0,59.0,-100.00,NNE,26,9.0,20.0,94,0.32,,,-99.99,,2013-06-14 03:34:00,
2013-06-13 23:43:00,61.0,59.0,-100.00,NNE,26,9.0,20.0,94,0.32,,,-99.99,,2013-06-14 03:43:00,
2013-06-13 23:53:00,61.0,59.0,-100.00,NNE,26,9.0,20.0,94,0.32,,,-99.99,,2013-06-14 03:53:00,